www.pogodaiklimat.ru

Погода и климат >> Архив погоды >> Россия >> Мурманская область >> Падун


ПОГОДА в Падуне

  • Прогноз погоды в Падуне
  • Монитор погоды в Падуне

АРХИВ ПОГОДЫ в Падуне

Время (UTC), дата Ветер
(напр.,м/с)
 
Видим.   Явления Облачность Т
(С)
Тd
(С)
f
(%)
Тe
(С)
Тes
(С)
Комфортность P
(гПа)
Po
(гПа)
Тmin
(С)
Tmax
(С)
R
(мм)
R24
(мм)
S
(см)
18 15.08 СВ 1 20 км 10/10 300 м
[St]
+10.3 +8.6 89 +10 +10 1004.2 996.7 +12.9
00 16.08 С 1 20 км н/о +8.4 +7.6 95 +8 +8 1005.7 998.1
06 16.08 штиль 0 20 км 10/10 300 м
[St]
+9.4 +7.8 90 +9 +9 1008.1 1000.5 +8.2 0.1
12 16.08 В 1 20 км 10/10 600 м
[St]
+12.3 +8.3 77 +12 +12 1009.8 1002.3
18 16.08 СВ 1 20 км в посл. час ливневой дождь 9/9 600 м
[Cb cap]
+10.6 +8.8 89 +10 +10 1010.6 1003.0 +12.7 0.0
00 17.08 штиль 0 8000 м н/о +5.3 +4.9 97 +4 +4 1010.6 1002.9
06 17.08 Ю 3 20 км 8/0
[Ac trans Ci fib]
+14.9 +11.0 77 +14 +16 1009.6 1002.2 +4.1
12 17.08 ЮЗ 2 20 км 9/8 1000 м
[Sc diur, vesp Ci fib]
+18.5 +11.0 62 +19 +20 1009.6 1002.3
18 17.08 штиль 0 20 км {ливн. осадки} 9/8 600 м
[Cb cap Ci fib]
+14.6 +13.6 94 +14 +14 1010.4 1003.0 +19.7 0.5
00 18.08 штиль 0 5000 м н/о +13.1 +12.5 96 +13 +13 1011.0 1003.5
06 18.08 Ю 2 20 км 9/3 1000 м
[Sc Ac cast Cc]
+16.8 +13.3 80 +17 +18 1010.7 1003.3 +12.7 0.6
12 18.08 ЮЗ 3-8
{11}
50 км 8/8 1000 м
[Cu Sc]
+23.2 +9.8 43 +25 +26 комфорт 1010.2 1003.0
18 18.08 Ю 2 50 км 9/3 600 м
[Cu Sc Cc]
+19.6 +12.4 63 +22 +22 комфорт 1011.4 1004.1 +23.6
00 19.08 ЮВ 2 20 км н/о +13.0 +9.2 78 +12 +12 1012.3 1004.8
06 19.08 ЮВ 2 50 км 8/0
[Ac lent Cc]
+17.9 +10.3 61 +18 +21 1011.4 1004.0 +12.7
12 19.08 Ю 4-10
{11}
50 км 9/6 600 м
[Cu Sc Ci fib]
+21.7 +8.2 42 +23 +24 комфорт 1008.0 1000.7
18 19.08 ЮВ 3-6
{11}
20 км 10/4 1000 м
[Sc Ac und]
+17.8 +9.6 59 +18 +18 1006.2 998.9 +22.6
00 20.08 Ю 1 20 км н/о +14.6 +11.9 84 +15 +15 1004.7 997.3
06 20.08 ЮЗ 3-8
{11}
50 км 3/1 1000 м
[Cu hum Ac cast]
+17.1 +10.9 67 +17 +19 1005.5 998.2 +14.3 0.1
12 20.08 З 3 50 км 4/4 1000 м
[Cu med, cong]
+20.6 +10.4 52 +23 +25 комфорт 1007.5 1000.2
18 20.08 штиль 0 50 км ясно +14.7 +9.8 72 +14 +14 1010.0 1002.6 +21.4
00 21.08 ЮЗ 1 20 км н/о +12.0 +9.3 84 +12 +12 1012.0 1004.5
06 21.08 ЮЗ 2 20 км 9/0
[Ac lent]
+15.2 +10.4 73 +15 +16 1013.4 1005.9 +9.0
12 21.08 З 1 20 км 9/8 1000 м
[Sc Ac trans]
+16.4 +11.1 71 +17 +18 1014.3 1006.9
18 21.08 штиль 0 20 км 3/3 1000 м
[Sc]
+12.1 +10.6 91 +11 +11 1014.1 1006.6 +18.9
00 22.08 штиль 0 9000 м н/о +7.2 +6.8 97 +6 +6 1014.1 1006.4
06 22.08 ЮЗ 1 20 км 8/0
[Ac cast]
+12.5 +10.9 90 +12 +14 1013.3 1005.8 +5.3

 

Местоположение метеостанции Падун (Мурманская область, Россия): широта 68.60 долгота 31.85 высота над уровнем моря 63 м.

В архиве по умолчанию представлена погода в Падуне за последнюю неделю. Архивные данные за месяц целиком и за предыдущие месяцы, начиная с января 2011 года, Вы можете получить, выбрав интересующий диапазон дат из раскрывающегося списка и нажав кнопку "Ввод!".


*Определитесь, кто Вы:
робот инопланетянин человек

Внимание! Время в таблицах - всемирное. Для получения местного времени необходимо прибавить поправку, которая равна 3 ч.

Смотрите также архив погоды в соседних городах и на ближайших метеорологических станциях:

Погода в Мурманске аэропорт (Мурманская область, Россия) (39 км)
Погода в Ниванкюле (Мурманская область, Россия) (54 км)
Погода в Мурманске (Мурманская область, Россия) (63 км)
Погода в Пулозере (Мурманская область, Россия) (65 км)
Погода в Перевале (Мурманская область, Россия) (69 км)
Погода в Североморске (Мурманская область, Россия) (83 км)
Погода в Ура-Губе (Мурманская область, Россия) (85 км)
Погода в Мончегорске (Мурманская область, Россия) (87 км)
Погода в Полярном (Мурманская область, Россия) (93 км)
Погода в Инари Вайла (Финляндия) (108 км)

Пояснения к столбцам:

Ветер - указаны скорость ветра в м/с - средняя за 10 мин, порывы в срок и между сроками (в фигурных скобках) и направление, откуда дует ветер: С - северный, СВ - северо-восточный, В - восточный, ЮВ - юго-восточный, Ю - южный, ЮЗ - юго-западный, З - западный, СЗ - северо-западный.
Видимость - горизонтальная дальность видимости в метрах или километрах. При видимости от 1 до 10 км при отсутствии осадков обычно наблюдается дымка, при ухудшении видимости до 1 км и менее - туман. В сухую погоду видимость может ухудшаться дымом, пылью или мглою.
Явления - указаны атмосферные явления, наблюдавшиеся в срок или в последний час перед сроком; фигурными скобками обозначены явления, наблюдавшиеся между сроками (за 1-3 часа до срока); квадратными скобками обозначены град или гололедные отложения с указанием их диаметра в мм.
Облачность - указаны через наклонную черту общая и нижняя облачность в баллах и высота нижней границы облаков в метрах; квадратными скобками обозначены формы облаков: Ci - перистые, Cs - перисто-слоистые, Cc - перисто-кучевые, Ac - высококучевые, As - высокослоистые, Sc - слоисто-кучевые, Ns - слоисто-дождевые, Cu - кучевые, Cb - кучево-дождевые. Подробнее классификацию облаков см. в Атласе облаков (PDF).
T - Температура воздуха - температура, измеренная на высоте 2 м над землей.
Td - Температура точки росы - температура, при понижении до которой содержащийся в воздухе водяной пар достигнет насыщения.
f - Относительная влажность воздуха - влажноcть воздуха, измеренная на высоте 2 м над землей.
Te - Эффективная температура - температура, которую ощущает одетый по сезону человек в тени. Характеристика душности погоды. При расчете учитывается влияние влажности воздуха и скорости ветра на теплоощущения человека.
Tes - Эффективная температура на солнце - температура, которую ощущает человек, с поправкой на солнечный нагрев. Характеристика знойности погоды. Зависит от высоты солнца над горизонтом, облачности и скорости ветра. Ночью, в пасмурную погоду, а также при ветре 12 м/с и более поправка равна нулю.
P - Атмосферное давление - приведенное к уровню моря атмосферное давление.
Po - Атмосферное давление - измеренное на уровне метеостанции атмосферное давление.
Tmin - Минимальная температура - минимум температуры воздуха на высоте 2 м над землей.
Tmax - Максимальная температура - максимум температуры воздуха на высоте 2 м над землей.
R - Количество осадков - Количество выпавших осадков за период времени, мм. При наведении курсора мыши на число - период времени, за который выпало указанное количество осадков.
R24 - Количество осадков - Количество выпавших осадков за 24 часа, мм.
S - Снежный покров - Высота снежного покрова, см. При наведении курсора мыши на число - состояние снежного покрова и степень покрытия местности в баллах.